Location: Cz?stochówka
(50.8142°N, 19.0915°E)
Time: 15:32:55
(UTC+00:00)

GEOS 3 Rocket - Pass Details

Date: 13 January 2026
Orbit: 768 x 845 km, 115.0° (Epoch: 17 February)

Event Time Altitude Azimuth Distance (km) Brightness Sun altitude
Rises 03:40:32 0° 135° (SE) 3,311 7.4 -27.7°
Reaches altitude 10° 03:42:48 10° 135° (SE) 2,394 6.6 -27.3°
Maximum altitude 03:48:01 90° 59° (ENE) 830 3.5 -26.5°
Enters shadow 03:48:28 76° 317° (NW) 854 3.5 -26.4°
